Bishops Head, MD NWLON current weather conditions

sailwx.info

Wind from 202 at 10 knots gusting 13

Air temperature 9.4° C
Water temperature 6.7° C

Last reported at 2019-Dec-06 19:36 UTC.
Time now 2019-Dec-06 20:57 UTC

Location: N 38°13' W 076°02'.
View on Google Maps.

See reports from other nearby stations

  
Tides and Currents Weather Stations Pressure Air Temp Water Temp Dewpoint Dewpoint Depression Visibility Wind Speed Wind Dir Waves Ship Positions
date/time (UTC)wind fromknots sea level pressurealtimeterstation pressurevisibilityair tempwater tempwave heightnotes
2019-Dec-06 19:36 202 10 gusting 13 9.4 6.7
2019-Dec-06 19:30 205 11 gusting 13 9.4 6.7
2019-Dec-06 19:24 205 11 gusting 13 9.4 6.7
2019-Dec-06 19:18 206 11 gusting 14 9.4 6.7
2019-Dec-06 19:12 205 13 gusting 15 9.4 6.7
2019-Dec-06 19:06 206 13 gusting 15 9.4 6.7
2019-Dec-06 19:00 206 13 gusting 15 9.4 6.7
2019-Dec-06 18:54 206 13 gusting 16 9.4 6.7
2019-Dec-06 18:48 207 14 gusting 18 9.4 6.7
2019-Dec-06 18:42 207 15 gusting 19 9.4 6.7
2019-Dec-06 18:36 204 14 gusting 19 9.4 6.7
2019-Dec-06 18:30 201 16 gusting 19 9.4 6.7
2019-Dec-06 18:24 201 15 gusting 18 9.4 6.7
2019-Dec-06 18:18 200 15 gusting 17 8.9 6.7
2019-Dec-06 18:12 200 15 gusting 17 8.9 6.7
2019-Dec-06 18:06 199 14 gusting 15 8.9 6.7
2019-Dec-06 18:00 199 13 gusting 16 8.9 6.7
2019-Dec-06 17:54 195 13 gusting 16 8.9 6.7
2019-Dec-06 17:48 193 13 gusting 17 8.9 6.7
2019-Dec-06 17:42 195 14 gusting 17 8.9 6.7
2019-Dec-06 17:36 194 14 gusting 18 8.9 6.7
2019-Dec-06 17:30 194 15 gusting 18 8.3 6.7
2019-Dec-06 17:24 194 15 gusting 18 8.3 6.7
2019-Dec-06 17:18 195 15 gusting 18 8.3 6.7
2019-Dec-06 17:12 196 16 gusting 19 8.3 6.7
2019-Dec-06 17:06 191 17 gusting 19 8.3 6.7
2019-Dec-06 17:00 194 16 gusting 19 8.3 6.7
2019-Dec-06 16:54 195 16 gusting 19 8.3 6.7
2019-Dec-06 16:48 197 14 gusting 19 8.3 6.7
2019-Dec-06 16:42 198 16 gusting 21 8.9 6.7
2019-Dec-06 16:36 200 16 gusting 19 8.9 6.7
2019-Dec-06 16:30 199 18 gusting 19 8.9 6.7
2019-Dec-06 16:24 198 16 gusting 20 8.9 6.7
2019-Dec-06 16:18 198 16 gusting 19 8.9 6.7
2019-Dec-06 16:12 197 18 gusting 20 8.9 6.7
2019-Dec-06 16:06 197 17 gusting 19 8.9 6.7
2019-Dec-06 16:00 197 14 gusting 19 8.3 6.1
2019-Dec-06 15:54 194 15 gusting 19 8.3 6.1
2019-Dec-06 15:48 194 16 gusting 20 8.3 6.1
2019-Dec-06 15:42 195 16 gusting 19 8.3 6.1
2019-Dec-06 15:36 193 16 gusting 19 8.3 6.1
2019-Dec-06 15:30 192 14 gusting 18 8.3 6.1
2019-Dec-06 15:24 189 14 gusting 18 8.3 6.1
2019-Dec-06 15:18 193 16 gusting 18 8.3 6.1
2019-Dec-06 15:12 190 16 gusting 19 8.3 6.1
2019-Dec-06 15:06 190 14 gusting 19 8.3 6.1
2019-Dec-06 15:00 190 15 gusting 19 8.3 6.1
2019-Dec-06 14:54 192 15 gusting 19 8.3 6.1
2019-Dec-06 14:48 186 14 gusting 19 8.3 6.1
2019-Dec-06 14:42 175 13 gusting 14 8.3 6.1
2019-Dec-06 14:36 167 11 gusting 13 7.8 6.1
2019-Dec-06 14:30 166 11 gusting 14 7.2 6.1
2019-Dec-06 14:24 168 13 gusting 14 7.2 6.1
2019-Dec-06 14:18 170 13 gusting 15 7.2 6.1
2019-Dec-06 14:12 171 13 gusting 15 7.2 6.1
2019-Dec-06 14:06 172 13 gusting 15 7.2 6.1
2019-Dec-06 14:00 170 13 gusting 15 7.2 6.1
2019-Dec-06 13:54 164 11 gusting 13 7.2 6.1
2019-Dec-06 13:48 165 12 gusting 13 7.2 6.1
2019-Dec-06 13:42 164 11 gusting 13 7.2 6.1
2019-Dec-06 13:36 165 11 gusting 13 7.2 6.1
2019-Dec-06 13:30 166 11 gusting 13 7.2 5.6
2019-Dec-06 13:24 167 11 gusting 12 7.2 5.6
2019-Dec-06 13:18 169 10 gusting 12 7.2 5.6
2019-Dec-06 13:12 173 10 gusting 11 7.2 5.6
2019-Dec-06 13:06 178 8 gusting 9 6.7 5.6
2019-Dec-06 13:00 184 7 gusting 10 6.7 5.6
2019-Dec-06 12:54 179 9 gusting 11 6.7 5.6
2019-Dec-06 12:48 181 9 gusting 11 6.7 5.6
2019-Dec-06 12:42 179 9 gusting 11 6.7 5.6
2019-Dec-06 12:36 178 8 gusting 11 6.7 5.6
2019-Dec-06 12:30 176 8 gusting 9 6.7 5.6
2019-Dec-06 12:24 178 7 gusting 10 6.7 5.6
2019-Dec-06 12:18 175 9 gusting 11 6.7 5.6
2019-Dec-06 12:12 171 9 gusting 11 6.7 5.6
2019-Dec-06 12:06 170 9 gusting 10 6.7 5.6
2019-Dec-06 12:00 169 9 gusting 11 6.7 5.6
2019-Dec-06 11:54 169 9 gusting 11 6.1 5.6
2019-Dec-06 11:48 172 8 gusting 10 6.1 5.6
2019-Dec-06 11:42 180 7 gusting 9 6.1 5.6
2019-Dec-06 11:36 182 7 gusting 9 6.1 5.6
2019-Dec-06 11:30 183 7 gusting 10 6.1 5.6
2019-Dec-06 11:24 183 7 gusting 9 6.1 5.6
2019-Dec-06 11:18 188 6 gusting 7 6.1 5.6
2019-Dec-06 11:12 184 6 gusting 7 6.1 5.6
2019-Dec-06 11:06 185 6 gusting 8 6.1 5.6
2019-Dec-06 11:00 179 6 gusting 7 6.1 5.6
2019-Dec-06 10:54 178 6 gusting 7 6.1 5.6
2019-Dec-06 10:48 182 6 gusting 7 6.1 5.6
2019-Dec-06 10:42 181 5 gusting 7 5.6 5.6
2019-Dec-06 10:36 185 6 gusting 7 5.6 5.6
2019-Dec-06 10:30 186 6 gusting 8 5.6 5.6
2019-Dec-06 10:24 184 6 gusting 8 5.6 5.6
2019-Dec-06 10:18 185 6 gusting 8 5.6 5.6
2019-Dec-06 10:12 187 7 gusting 9 5.6 5.6
2019-Dec-06 10:06 185 7 gusting 8 6.1 5.6
2019-Dec-06 10:00 188 7 gusting 9 6.1 5.6
2019-Dec-06 09:54 181 7 gusting 9 6.1 5.6
2019-Dec-06 09:48 176 6 gusting 6 6.1 5.6
2019-Dec-06 09:42 178 5 gusting 6 6.1 5.6
2019-Dec-06 09:36 184 5 gusting 6 6.1 5.6
2019-Dec-06 09:30 187 6 gusting 7 6.1 6.1
2019-Dec-06 09:24 190 6 gusting 7 6.1 6.1
2019-Dec-06 09:18 186 6 gusting 6 6.1 6.1
2019-Dec-06 09:12 186 6 gusting 7 6.1 6.1
2019-Dec-06 09:06 189 6 gusting 7 5.6 6.1
2019-Dec-06 09:00 187 6 gusting 6 6.1 6.1
2019-Dec-06 08:54 195 6 gusting 6 6.1 6.1
2019-Dec-06 08:48 192 6 gusting 6 6.1 6.1
2019-Dec-06 08:42 193 5 gusting 5 6.7 6.1
2019-Dec-06 08:36 190 4 gusting 5 6.7 6.1
2019-Dec-06 08:30 188 3 gusting 4 6.7 6.1
2019-Dec-06 08:24 176 3 gusting 4 6.1 6.1
2019-Dec-06 08:18 181 3 gusting 4 6.1 6.1
2019-Dec-06 08:12 185 3 gusting 3 6.1 6.1
2019-Dec-06 08:06 190 3 gusting 4 6.1 6.1
2019-Dec-06 08:00 193 4 gusting 4 6.1 6.1
2019-Dec-06 07:54 185 3 gusting 4 6.1 6.1
2019-Dec-06 07:48 189 4 gusting 5 6.1 6.1
2019-Dec-06 07:42 203 4 gusting 5 6.1 6.1
2019-Dec-06 07:36 198 3 gusting 4 6.1 6.1
2019-Dec-06 07:30 185 3 gusting 3 6.1 6.1
2019-Dec-06 07:24 191 2 gusting 3 6.1 6.1
2019-Dec-06 07:18 198 1 gusting 2 6.1 6.1
2019-Dec-06 07:12 202 2 gusting 3 6.1 6.1
2019-Dec-06 07:06 191 2 gusting 2 6.1 6.1
2019-Dec-06 07:00 180 1 gusting 2 6.1 6.1
2019-Dec-06 06:54 180 1 gusting 1 6.1 6.1
2019-Dec-06 06:48 175 1 gusting 1 6.1 6.1
2019-Dec-06 06:42 181 1 gusting 2 6.1 6.1
2019-Dec-06 06:36 136 1 gusting 1 5.6 6.1
2019-Dec-06 06:30 117 1 gusting 1 5.6 6.1
2019-Dec-06 06:24 146 1 gusting 1 5.6 6.1
2019-Dec-06 06:18 148 1 gusting 1 5.6 6.1
2019-Dec-06 06:12 144 1 gusting 1 5.6 6.1
2019-Dec-06 06:06 154 0 gusting 1 5.6 6.1
2019-Dec-06 06:00 182 0 gusting 1 5.6 6.7
2019-Dec-06 05:54 200 1 gusting 1 5.6 6.7
2019-Dec-06 05:48 204 1 gusting 2 5.6 6.7
2019-Dec-06 05:42 208 1 gusting 2 5.6 6.7
2019-Dec-06 05:36 217 1 gusting 1 5.6 6.7
2019-Dec-06 05:30 219 0 gusting 0 5.6 6.7
2019-Dec-06 05:24 054 5.6 6.7
2019-Dec-06 05:18 054 5.0 6.7
2019-Dec-06 05:12 035 0 gusting 1 5.6 6.7
2019-Dec-06 05:06 013 1 gusting 2 5.6 6.7
2019-Dec-06 05:00 012 1 gusting 2 5.6 6.7
2019-Dec-06 04:54 011 1 gusting 2 5.6 6.7
2019-Dec-06 04:48 345 2 gusting 2 5.6 6.7
2019-Dec-06 04:42 330 2 gusting 2 5.6 6.7
2019-Dec-06 04:36 345 0 gusting 2 5.6 6.7
2019-Dec-06 04:30 311 1 gusting 2 5.6 6.7
2019-Dec-06 04:24 294 0 gusting 1 6.1 6.7
2019-Dec-06 04:18 247 1 gusting 2 6.1 6.7
2019-Dec-06 04:12 253 2 gusting 2 5.6 6.7
2019-Dec-06 04:06 243 2 gusting 2 5.6 6.7
2019-Dec-06 04:00 279 0 gusting 1 5.6 6.7
2019-Dec-06 03:54 284 0 gusting 1 5.6 6.7
2019-Dec-06 03:48 322 1 gusting 1 5.6 6.7
2019-Dec-06 03:42 295 1 gusting 1 5.0 6.7
2019-Dec-06 03:36 291 0 gusting 1 5.0 6.7
2019-Dec-06 03:30 302 1 gusting 1 5.0 6.7
2019-Dec-06 03:24 343 1 gusting 2 4.4 6.7
2019-Dec-06 03:18 350 1 gusting 4 4.4 6.7
2019-Dec-06 03:12 330 3 gusting 4 4.4 6.7
2019-Dec-06 03:06 346 4 gusting 5 5.0 6.7
2019-Dec-06 03:00 357 2 gusting 5 5.0 6.7
2019-Dec-06 02:54 005 3 gusting 5 5.0 6.7
2019-Dec-06 02:48 348 4 gusting 5 5.0 6.7
2019-Dec-06 02:42 332 5 gusting 6 3.9 6.7
2019-Dec-06 02:36 328 6 gusting 6 3.9 6.7
2019-Dec-06 02:30 333 6 gusting 7 4.4 6.7
2019-Dec-06 02:24 327 6 gusting 6 4.4 6.7
2019-Dec-06 02:18 323 6 gusting 6 5.0 6.7
2019-Dec-06 02:12 325 5 gusting 6 5.6 6.7
2019-Dec-06 02:06 315 5 gusting 6 6.1 6.7
2019-Dec-06 02:00 311 3 gusting 5 6.1 6.7
2019-Dec-06 01:54 307 5 gusting 5 6.1 6.7
2019-Dec-06 01:48 308 5 gusting 5 6.1 6.7
2019-Dec-06 01:30 338 4 gusting 4 5.0 6.7
2019-Dec-06 01:24 324 3 gusting 4 5.0 6.7
2019-Dec-06 01:18 324 3 gusting 4 5.0 6.7
2019-Dec-06 01:12 315 3 gusting 4 5.6 6.7
2019-Dec-06 01:06 320 4 gusting 5 4.4 6.7
2019-Dec-06 01:00 332 5 gusting 6 4.4 6.7
2019-Dec-06 00:54 328 5 gusting 6 4.4 6.7
2019-Dec-06 00:48 337 6 gusting 6 5.0 6.7
2019-Dec-06 00:42 327 5 gusting 6 5.0 6.7
2019-Dec-06 00:36 327 4 gusting 5 5.0 6.7
2019-Dec-06 00:30 323 4 gusting 6 5.0 6.7
2019-Dec-06 00:24 324 5 gusting 6 5.0 6.7
2019-Dec-06 00:18 328 6 gusting 7 5.0 6.7
2019-Dec-06 00:12 334 6 gusting 7 5.6 6.7
2019-Dec-06 00:06 333 6 gusting 6 5.6 6.7
2019-Dec-06 00:00 332 6 gusting 6 6.1 6.7
2019-Dec-05 23:54 335 5 gusting 6 6.1 6.7
2019-Dec-05 23:36 333 3 gusting 4 6.1 6.7
2019-Dec-05 23:30 330 4 gusting 4 6.1 6.7
2019-Dec-05 23:24 337 3 gusting 4 6.1 6.7
2019-Dec-05 23:18 6.1 6.7
2019-Dec-05 23:12 353 2 gusting 2 6.1 6.7
2019-Dec-05 23:06 004 1 gusting 1 6.1 6.7
2019-Dec-05 23:00 334 1 gusting 2 5.6 6.7
2019-Dec-05 22:54 325 2 gusting 4 5.6 6.7
2019-Dec-05 22:48 327 4 gusting 5 5.6 6.7
2019-Dec-05 22:42 330 5 gusting 6 5.0 6.7
2019-Dec-05 22:36 322 6 gusting 7 5.6 6.7
2019-Dec-05 22:30 322 6 gusting 7 5.6 6.7
2019-Dec-05 22:24 329 6 gusting 6 5.0 6.7
2019-Dec-05 22:18 334 5 gusting 7 5.6 6.7
2019-Dec-05 22:12 322 6 gusting 8 6.7 6.7
2019-Dec-05 22:06 316 7 gusting 11 7.2 6.7
2019-Dec-05 22:00 316 8 gusting 12 7.2 6.7
2019-Dec-05 21:54 318 9 gusting 11 7.2 6.7
2019-Dec-05 21:48 315 9 gusting 11 7.2 6.7
2019-Dec-05 21:42 315 10 gusting 12 7.2 7.2
2019-Dec-05 21:36 313 10 gusting 11 7.8 7.2
2019-Dec-05 21:30 311 10 gusting 12 7.8 7.2
2019-Dec-05 21:24 306 10 gusting 13 7.8 7.2
2019-Dec-05 21:18 305 11 gusting 13 7.8 7.2
2019-Dec-05 21:12 312 12 gusting 14 7.8 7.2
2019-Dec-05 21:06 306 11 gusting 15 7.8 7.2
2019-Dec-05 21:00 305 13 gusting 19 7.8 7.2
2019-Dec-05 20:54 306 11 gusting 16 7.8 7.2
2019-Dec-05 20:48 310 12 gusting 14 7.8 7.2
2019-Dec-05 20:42 303 13 gusting 14 7.8 7.2
2019-Dec-05 20:36 302 11 gusting 13 7.8 7.8
2019-Dec-05 20:30 307 13 gusting 16 7.8 7.2
2019-Dec-05 20:24 303 13 gusting 17 7.8 7.2
2019-Dec-05 20:18 303 13 gusting 16 7.8 7.2
2019-Dec-05 20:12 303 13 gusting 16 7.8 7.2
2019-Dec-05 20:06 301 14 gusting 19 7.8 7.2
2019-Dec-05 20:00 303 17 gusting 19 7.8 7.2
2019-Dec-05 19:54 303 16 gusting 19 7.8 7.2
2019-Dec-05 19:48 306 17 gusting 18 7.8 7.2
2019-Dec-05 19:42 303 15 gusting 19 7.8 7.2
2019-Dec-05 19:36 297 14 gusting 17 7.2 7.2
2019-Dec-05 19:30 303 16 gusting 19 7.2 7.2
2019-Dec-05 19:24 299 16 gusting 19 7.2 6.7
2019-Dec-05 19:18 305 16 gusting 19 7.2 6.7
2019-Dec-05 19:12 306 13 gusting 19 7.2 6.7
2019-Dec-05 19:06 301 16 gusting 18 7.2 6.7
2019-Dec-05 19:00 305 13 gusting 19 7.2 6.7
2019-Dec-05 18:54 302 17 gusting 21 7.2 6.7
2019-Dec-05 18:48 304 17 gusting 22 7.2 6.7
2019-Dec-05 18:42 301 18 gusting 20 7.2 6.7
2019-Dec-05 18:36 292 14 gusting 19 7.2 6.7
2019-Dec-05 18:30 303 16 gusting 19 7.2 6.7
2019-Dec-05 18:24 296 16 gusting 19 7.2 6.7
2019-Dec-05 18:18 295 17 gusting 20 7.2 6.7
2019-Dec-05 18:12 297 18 gusting 20 7.2 6.7
2019-Dec-05 18:06 301 17 gusting 23 7.2 6.7
2019-Dec-05 18:00 300 19 gusting 22 6.7 6.7
2019-Dec-05 17:54 302 18 gusting 22 6.7 6.7
2019-Dec-05 17:48 295 19 gusting 22 6.7 6.7
2019-Dec-05 17:42 310 19 gusting 21 6.7 6.7
2019-Dec-05 17:36 304 16 gusting 20 6.7 6.1
2019-Dec-05 17:30 304 15 gusting 19 6.7 6.1
2019-Dec-05 17:24 310 16 gusting 20 6.7 6.1
2019-Dec-05 17:18 303 17 gusting 20 6.7 6.1
2019-Dec-05 17:12 308 19 gusting 22 6.7 6.1
2019-Dec-05 17:06 308 19 gusting 23 6.7 6.1
2019-Dec-05 17:00 311 18 gusting 24 6.7 6.1
2019-Dec-05 16:54 315 19 gusting 25 6.7 6.1
2019-Dec-05 16:48 306 19 gusting 24 6.7 6.1
2019-Dec-05 16:42 309 19 gusting 22 6.7 6.1
2019-Dec-05 16:36 311 16 gusting 18 6.7 6.1
2019-Dec-05 16:30 306 13 gusting 18 6.7 6.1
2019-Dec-05 16:24 301 16 gusting 19 6.1 6.1
2019-Dec-05 16:18 302 17 gusting 20 6.1 6.1
2019-Dec-05 16:12 301 19 gusting 21 6.1 6.1
2019-Dec-05 16:06 301 17 gusting 19 6.1 6.1
2019-Dec-05 16:00 299 15 gusting 19 6.1 6.1
2019-Dec-05 15:54 301 17 gusting 21 6.1 6.1
2019-Dec-05 15:48 299 16 gusting 22 6.1 6.1
2019-Dec-05 15:42 299 19 gusting 19 6.1 6.1
2019-Dec-05 15:36 297 18 gusting 21 6.1 6.1
2019-Dec-05 15:30 302 17 gusting 20 6.1 6.1
2019-Dec-05 15:24 298 16 gusting 19 6.1 6.1
2019-Dec-05 15:18 306 17 gusting 19 6.1 6.1
2019-Dec-05 15:12 296 16 gusting 20 6.1 6.1
2019-Dec-05 15:06 294 19 gusting 21 5.6 6.1
2019-Dec-05 15:00 297 17 gusting 20 6.1 6.1
2019-Dec-05 14:54 305 16 gusting 21 5.6 6.1
2019-Dec-05 14:48 300 18 gusting 19 5.6 6.1
2019-Dec-05 14:42 295 18 gusting 20 5.6 6.1
2019-Dec-05 14:36 299 17 gusting 20 5.6 6.1
2019-Dec-05 14:30 309 18 gusting 21 5.6 6.1
2019-Dec-05 14:24 299 15 gusting 19 5.6 6.1
2019-Dec-05 14:18 300 17 gusting 20 5.6 6.1
2019-Dec-05 14:12 312 18 gusting 21 5.6 6.1
2019-Dec-05 14:06 300 18 gusting 23 5.6 6.1
2019-Dec-05 14:00 303 18 gusting 24 5.6 6.1
2019-Dec-05 13:54 299 19 gusting 23 5.6 6.1
2019-Dec-05 13:48 300 18 gusting 23 5.6 6.1
2019-Dec-05 13:42 297 18 gusting 22 5.6 6.1
2019-Dec-05 13:36 294 19 gusting 22 5.6 6.1
2019-Dec-05 13:30 295 20 gusting 25 5.6 6.1
2019-Dec-05 13:24 301 20 gusting 26 5.6 6.1
2019-Dec-05 13:18 296 23 gusting 27 5.6 6.1
2019-Dec-05 13:12 297 21 gusting 26 5.6 6.1
2019-Dec-05 13:06 299 23 gusting 26 5.6 6.1
2019-Dec-05 13:00 299 21 gusting 26 5.6 6.1
2019-Dec-05 12:54 297 22 gusting 28 5.6 6.1
2019-Dec-05 12:48 300 24 gusting 27 5.6 6.1
2019-Dec-05 12:42 296 22 gusting 26 6.1 6.1
2019-Dec-05 12:36 298 22 gusting 27 5.6 6.1
2019-Dec-05 12:30 297 24 gusting 27 5.6 6.1
2019-Dec-05 12:24 296 22 gusting 26 6.1 6.1
2019-Dec-05 12:18 298 22 gusting 26 6.1 6.1
2019-Dec-05 12:12 298 22 gusting 29 6.1 6.1
2019-Dec-05 12:06 297 25 gusting 31 6.1 6.1
2019-Dec-05 12:00 296 26 gusting 30 6.1 6.7
2019-Dec-05 11:54 298 24 gusting 28 6.1 6.7
2019-Dec-05 11:48 298 21 gusting 29 6.1 6.1
2019-Dec-05 11:42 295 24 gusting 27 6.1 6.7
2019-Dec-05 11:36 295 24 gusting 27 6.1 6.1
2019-Dec-05 11:30 298 22 gusting 29 6.1 6.7
2019-Dec-05 11:24 298 22 gusting 26 6.1 6.7
2019-Dec-05 11:18 297 22 gusting 27 6.1 6.7
2019-Dec-05 11:12 297 22 gusting 26 6.1 6.7
2019-Dec-05 11:06 295 21 gusting 26 6.1 6.7
2019-Dec-05 11:00 299 22 gusting 26 6.1 6.7
2019-Dec-05 10:54 297 21 gusting 26 6.1 6.7
2019-Dec-05 10:48 298 24 gusting 30 6.1 6.7
2019-Dec-05 10:42 294 22 gusting 27 6.1 6.7
2019-Dec-05 10:36 302 21 gusting 27 6.1 6.7
2019-Dec-05 10:30 299 25 gusting 30 6.1 6.7
2019-Dec-05 10:24 302 23 gusting 27 6.1 6.7
2019-Dec-05 10:18 300 24 gusting 27 6.1 6.7
2019-Dec-05 10:12 298 23 gusting 28 6.1 6.7
2019-Dec-05 10:06 302 24 gusting 29 6.1 6.7
2019-Dec-05 10:00 299 24 gusting 28 6.1 6.7
2019-Dec-05 09:54 299 23 gusting 26 6.1 6.7
2019-Dec-05 09:48 299 22 gusting 26 6.1 6.7
2019-Dec-05 09:42 301 23 gusting 27 6.1 6.7
2019-Dec-05 09:36 300 23 gusting 26 6.1 6.7
2019-Dec-05 09:30 304 19 gusting 25 6.1 6.7
2019-Dec-05 09:24 304 19 gusting 29 6.7 6.7
2019-Dec-05 09:18 299 24 gusting 29 6.7 6.7
2019-Dec-05 09:12 301 27 gusting 30 6.7 6.7
2019-Dec-05 09:06 298 27 gusting 33 6.7 6.7
2019-Dec-05 09:00 292 22 gusting 24 6.7 6.7
2019-Dec-05 08:54 290 20 gusting 25 6.7 6.7
2019-Dec-05 08:48 293 22 gusting 26 6.7 6.7
2019-Dec-05 08:42 299 20 gusting 25 6.7 6.7
2019-Dec-05 08:36 301 20 gusting 27 6.7 6.7
2019-Dec-05 08:30 306 23 gusting 26 6.7 6.7
2019-Dec-05 08:24 302 19 gusting 24 7.2 7.2
2019-Dec-05 08:18 302 22 gusting 26 7.2 7.2
2019-Dec-05 08:12 299 19 gusting 22 7.2 7.2
2019-Dec-05 08:06 299 16 gusting 19 7.2 7.2
2019-Dec-05 08:00 303 17 gusting 20 7.2 7.2
2019-Dec-05 07:54 301 17 gusting 19 7.2 7.2
2019-Dec-05 07:48 302 14 gusting 18 7.2 7.2
2019-Dec-05 07:42 302 14 gusting 17 7.2 7.2
2019-Dec-05 07:36 306 13 gusting 15 7.2 7.2
2019-Dec-05 07:30 307 11 gusting 13 7.2 7.2
2019-Dec-05 07:24 308 11 gusting 14 7.2 7.2
2019-Dec-05 07:18 309 11 gusting 14 7.2 7.2
2019-Dec-05 07:12 315 12 gusting 15 6.7 7.2
2019-Dec-05 07:06 315 11 gusting 13 7.2 7.2
2019-Dec-05 07:00 320 11 gusting 14 7.2 7.2
2019-Dec-05 06:54 314 11 gusting 15 7.2 7.2
2019-Dec-05 06:48 317 13 gusting 16 7.2 7.2
2019-Dec-05 06:42 317 13 gusting 15 7.2 7.2
2019-Dec-05 06:36 316 13 gusting 13 7.2 7.2
2019-Dec-05 06:30 319 12 gusting 19 7.2 7.2
2019-Dec-05 06:24 314 17 gusting 26 7.8 7.2
2019-Dec-05 06:18 291 14 gusting 16 7.8 7.2
2019-Dec-05 06:12 290 12 gusting 13 7.8 7.2
2019-Dec-05 06:06 288 9 gusting 11 7.8 7.2
2019-Dec-05 06:00 284 9 gusting 12 7.8 7.2
2019-Dec-05 05:54 284 9 gusting 11 7.8 7.2
2019-Dec-05 05:48 281 10 gusting 11 7.8 7.2
2019-Dec-05 05:42 273 9 gusting 10 7.8 7.2
2019-Dec-05 05:36 273 9 gusting 11 7.8 7.2
2019-Dec-05 05:30 268 7 gusting 10 7.8 7.2
2019-Dec-05 05:24 266 8 gusting 9 7.8 7.2
2019-Dec-05 05:18 261 6 gusting 6 7.8 7.2
2019-Dec-05 05:12 216 3 gusting 3 7.2 7.2
2019-Dec-05 05:06 198 3 gusting 3 7.2 7.2
2019-Dec-05 05:00 229 2 gusting 2 7.8 7.2
2019-Dec-05 04:54 259 2 gusting 2 7.2 7.2
2019-Dec-05 04:48 268 2 gusting 3 7.2 7.2
2019-Dec-05 04:42 264 3 gusting 3 7.2 7.2
2019-Dec-05 04:36 283 3 gusting 4 6.7 7.2
2019-Dec-05 04:30 294 3 gusting 3 6.7 7.2
2019-Dec-05 04:24 314 3 gusting 3 6.7 7.2
2019-Dec-05 04:18 324 3 gusting 3 6.7 7.2
2019-Dec-05 04:12 320 2 gusting 3 6.7 7.2
2019-Dec-05 04:06 342 3 gusting 3 6.7 7.2
2019-Dec-05 04:00 007 2 gusting 3 6.7 7.2
2019-Dec-05 03:54 010 2 gusting 3 6.7 7.2
2019-Dec-05 03:48 006 2 gusting 3 6.7 7.2
2019-Dec-05 03:42 003 2 gusting 4 6.7 7.2
2019-Dec-05 03:36 339 3 gusting 4 6.7 7.2
2019-Dec-05 03:30 328 2 gusting 2 6.7 7.2
2019-Dec-05 03:24 312 2 gusting 2 6.7 7.2
2019-Dec-05 03:18 311 2 gusting 3 6.7 7.2
2019-Dec-05 03:12 313 3 gusting 4 7.2 7.2
2019-Dec-05 03:06 321 3 gusting 4 6.7 7.2
2019-Dec-05 03:00 338 4 gusting 4 6.1 7.2
2019-Dec-05 02:54 315 3 gusting 5 6.7 7.2
2019-Dec-05 02:48 327 3 gusting 4 6.7 7.2
2019-Dec-05 02:42 294 3 gusting 4 7.2 7.2
2019-Dec-05 02:36 305 3 gusting 4 6.7 7.2
2019-Dec-05 02:30 315 4 gusting 5 6.7 7.2
2019-Dec-05 02:24 318 5 gusting 5 6.7 7.8
2019-Dec-05 02:18 320 5 gusting 6 6.7 7.2
2019-Dec-05 02:12 314 5 gusting 5 6.7 7.2
2019-Dec-05 02:06 318 5 gusting 6 7.2 7.8
2019-Dec-05 02:00 317 5 gusting 6 6.7 7.2
2019-Dec-05 01:54 320 4 gusting 5 6.7 7.2
2019-Dec-05 01:48 329 4 gusting 7 6.7 7.2
2019-Dec-05 01:36 320 7 gusting 10 7.8 7.2
2019-Dec-05 01:30 320 7 gusting 11 7.8 7.2
2019-Dec-05 01:24 315 10 gusting 13 8.3 7.2
2019-Dec-05 01:18 315 10 gusting 12 8.3 7.2
2019-Dec-05 01:12 311 9 gusting 11 8.3 7.2
2019-Dec-05 01:06 300 10 gusting 12 8.3 7.2
2019-Dec-05 01:00 295 10 gusting 13 8.3 7.2
2019-Dec-05 00:54 290 11 gusting 13 8.3 7.2
2019-Dec-05 00:48 293 9 gusting 11 8.3 7.2
2019-Dec-05 00:42 295 8 gusting 10 8.3 7.8
2019-Dec-05 00:36 293 8 gusting 10 8.3 7.8
2019-Dec-05 00:30 283 8 gusting 9 8.3 7.8
2019-Dec-05 00:24 284 6 gusting 7 8.3 7.8
2019-Dec-05 00:18 277 6 gusting 7 8.3 7.8
2019-Dec-05 00:12 288 6 gusting 6 8.3 7.8
2019-Dec-05 00:06 279 5 gusting 6 8.3 7.8
2019-Dec-05 00:00 286 4 gusting 11 8.3 7.8
2019-Dec-04 23:36 232 13 gusting 17 8.9 7.8
2019-Dec-04 23:30 232 11 gusting 13 8.9 7.8
2019-Dec-04 23:24 205 9 gusting 11 8.9 7.8
2019-Dec-04 23:18 214 10 gusting 11 8.9 7.8
2019-Dec-04 23:12 238 7 gusting 10 8.9 7.8
2019-Dec-04 23:06 234 8 gusting 12 8.9 7.8
2019-Dec-04 23:00 245 8 gusting 8 8.9 7.8
2019-Dec-04 22:54 270 5 gusting 6 8.3 7.8
2019-Dec-04 22:48 249 6 gusting 8 8.3 7.8
2019-Dec-04 22:42 234 7 gusting 9 8.3 7.8
2019-Dec-04 22:36 220 6 gusting 6 7.8 7.8
2019-Dec-04 22:30 202 6 gusting 8 7.8 7.8
2019-Dec-04 22:24 194 7 gusting 9 7.8 7.8
2019-Dec-04 22:18 187 6 gusting 8 7.2 7.8
2019-Dec-04 22:12 177 7 gusting 9 7.2 7.8
2019-Dec-04 22:06 176 8 gusting 9 7.2 7.8
2019-Dec-04 22:00 176 9 gusting 10 7.2 7.8
2019-Dec-04 21:54 174 9 gusting 11 7.2 7.8
2019-Dec-04 21:48 172 9 gusting 11 7.2 7.8
2019-Dec-04 21:42 175 9 gusting 12 7.2 7.8
2019-Dec-04 21:36 177 9 gusting 11 7.2 7.8
2019-Dec-04 21:30 174 9 gusting 11 7.2 7.8
2019-Dec-04 21:24 175 9 gusting 11 7.2 7.8
2019-Dec-04 21:18 180 10 gusting 11 7.2 7.8
2019-Dec-04 21:12 184 9 gusting 10 7.2 7.8
2019-Dec-04 21:06 187 8 gusting 9 7.2 7.8
2019-Dec-04 21:00 189 8 gusting 9 7.2 7.8
2019-Dec-04 20:54 195 8 gusting 9 7.2 7.8
2019-Dec-04 20:48 201 8 gusting 9 7.2 7.8
2019-Dec-04 20:42 199 8 gusting 9 7.2 7.8
2019-Dec-04 20:36 206 8 gusting 10 7.2 7.8
2019-Dec-04 20:30 203 8 gusting 10 7.2 7.8
2019-Dec-04 20:24 211 8 gusting 10 7.2 7.8
2019-Dec-04 20:18 210 7 gusting 10 7.2 7.8
2019-Dec-04 20:12 220 7 gusting 9 7.8 7.8
2019-Dec-04 20:06 214 8 gusting 10 7.2 7.8
2019-Dec-04 20:00 217 9 gusting 10 7.2 7.8